| time (UTC) | temp C | wind direction | speed KPH | gust KPH | rain 1hr cm | rain 24hr cm | rain mn cm | humidity % | barometer mb |
| 20260505195507 | 30 | 173 | 22.5 | 29.0 | 0.00 | 0.00 | 0.00 | 56 | 1008.2 |
| 20260505194433 | 30 | 165 | 12.9 | 16.1 | 0.00 | 0.00 | 0.00 | 58 | 1008.2 |
| 20260505193433 | 30 | 164 | 16.1 | 24.1 | 0.00 | 0.00 | 0.00 | 58 | 1008.2 |
| 20260505192433 | 29 | 184 | 14.5 | 20.9 | 0.00 | 0.00 | 0.00 | 60 | 1008.4 |
| 20260505191433 | 30 | 181 | 14.5 | 24.1 | 0.00 | 0.00 | 0.00 | 59 | 1008.2 |
| 20260505190433 | 29 | 168 | 8.0 | 12.9 | 0.00 | 0.00 | 0.00 | 62 | 1008.4 |
| 20260505185453 | 28 | 185 | 6.4 | 11.3 | 0.00 | 0.00 | 0.00 | 63 | 1008.4 |
| 20260505184433 | 28 | 179 | 14.5 | 22.5 | 0.00 | 0.00 | 0.00 | 62 | 1008.4 |
| 20260505183433 | 28 | 138 | 8.0 | 11.3 | 0.00 | 0.00 | 0.00 | 64 | 1008.4 |
| 20260505182434 | 28 | 284 | 17.7 | 24.1 | 0.00 | 0.00 | 0.00 | 63 | 1008.4 |
| 20260505181433 | 28 | 200 | 11.3 | 14.5 | 0.00 | 0.00 | 0.00 | 63 | 1008.7 |
| 20260505180434 | 28 | 142 | 12.9 | 14.5 | 0.00 | 0.00 | 0.00 | 62 | 1008.5 |
| 20260505175453 | 28 | 131 | 11.3 | 12.9 | 0.00 | 0.00 | 0.00 | 64 | 1008.6 |
| 20260505174433 | 27 | 166 | 12.9 | 17.7 | 0.00 | 0.00 | 0.00 | 66 | 1008.5 |
| 20260505173433 | 27 | 149 | 11.3 | 16.1 | 0.00 | 0.00 | 0.00 | 66 | 1008.5 |
| 20260505172433 | 27 | 125 | 11.3 | 17.7 | 0.00 | 0.00 | 0.00 | 65 | 1008.6 |
| 20260505171433 | 27 | 131 | 11.3 | 14.5 | 0.00 | 0.00 | 0.00 | 66 | 1008.5 |
| 20260505170433 | 27 | 133 | 11.3 | 14.5 | 0.00 | 0.00 | 0.00 | 66 | 1008.7 |
| 20260505165513 | 27 | 142 | 4.8 | 9.7 | 0.00 | 0.00 | 0.00 | 67 | 1008.6 |
| 20260505164433 | 27 | 191 | 14.5 | 22.5 | 0.00 | 0.00 | 0.00 | 66 | 1008.8 |
| 20260505163433 | 26 | 117 | 8.0 | 11.3 | 0.00 | 0.00 | 0.00 | 68 | 1008.7 |
| 20260505162434 | 26 | 211 | 12.9 | 17.7 | 0.00 | 0.00 | 0.00 | 67 | 1008.7 |
| 20260505161453 | 26 | 146 | 12.9 | 16.1 | 0.00 | 0.00 | 0.00 | 68 | 1008.5 |
| 20260505160433 | 26 | 179 | 12.9 | 16.1 | 0.00 | 0.00 | 0.00 | 69 | 1008.5 |
| 20260505152433 | 25 | 205 | 16.1 | 25.7 | 0.00 | 0.00 | 0.00 | 72 | 1008.3 |
| 20260505151433 | 25 | 234 | 12.9 | 17.7 | 0.00 | 0.00 | 0.00 | 74 | 1008.6 |
| 20260505150434 | 25 | 122 | 12.9 | 20.9 | 0.00 | 0.00 | 0.00 | 73 | 1008.6 |
| 20260505140434 | 23 | 184 | 6.4 | 12.9 | 0.00 | 0.00 | 0.00 | 79 | 1008.6 |
| 20260505124433 | 22 | 136 | 11.3 | 14.5 | 0.00 | 0.00 | 0.00 | 81 | 1008.3 |
| 20260505123433 | 22 | 128 | 8.0 | 12.9 | 0.00 | 0.00 | 0.00 | 81 | 1007.9 |
| 20260505122434 | 22 | 132 | 14.5 | 20.9 | 0.00 | 0.00 | 0.00 | 81 | 1007.9 |
| 20260505121453 | 22 | 209 | 8.0 | 9.7 | 0.00 | 0.00 | 0.00 | 81 | 1007.8 |
| 20260505120433 | 22 | 165 | 12.9 | 17.7 | 0.00 | 0.00 | 0.00 | 81 | 1007.7 |
| 20260505115434 | 22 | 112 | 9.7 | 14.5 | 0.00 | 0.00 | 0.00 | 81 | 1007.8 |
| 20260505114433 | 22 | 142 | 6.4 | 11.3 | 0.00 | 0.00 | 0.00 | 81 | 1007.6 |
| 20260505113434 | 21 | 113 | 8.0 | 16.1 | 0.00 | 0.00 | 0.00 | 82 | 1007.4 |
| 20260505112433 | 21 | 132 | 9.7 | 11.3 | 0.00 | 0.00 | 0.00 | 82 | 1007.5 |
| 20260505111434 | 21 | 145 | 9.7 | 14.5 | 0.00 | 0.00 | 0.00 | 82 | 1007.4 |
| 20260505110433 | 21 | 135 | 6.4 | 11.3 | 0.00 | 0.00 | 0.00 | 82 | 1007.3 |
| 20260505101434 | 22 | 185 | 9.7 | 14.5 | 0.00 | 0.00 | 0.00 | 80 | 1007.6 |
| 20260505100454 | 22 | 129 | 12.9 | 20.9 | 0.00 | 0.00 | 0.00 | 80 | 1007.5 |
| 20260505095433 | 22 | 168 | 14.5 | 22.5 | 0.00 | 0.00 | 0.00 | 81 | 1007.5 |
| 20260505094434 | 21 | 202 | 14.5 | 22.5 | 0.00 | 0.00 | 0.00 | 81 | 1007.8 |
| 20260505093453 | 21 | 231 | 17.7 | 25.7 | 0.00 | 0.00 | 0.00 | 81 | 1007.7 |
| 20260505092433 | 21 | 170 | 14.5 | 17.7 | 0.00 | 0.00 | 0.00 | 81 | 1007.8 |
| 20260505091433 | 21 | 130 | 8.0 | 11.3 | 0.00 | 0.00 | 0.00 | 82 | 1007.8 |
| 20260505090433 | 21 | 38 | 17.7 | 24.1 | 0.00 | 0.00 | 0.00 | 82 | 1007.7 |
| 20260505085433 | 21 | 177 | 12.9 | 16.1 | 0.00 | 0.00 | 0.00 | 82 | 1007.5 |
| 20260505084434 | 21 | 96 | 16.1 | 20.9 | 0.00 | 0.00 | 0.00 | 82 | 1007.7 |
| 20260505083454 | 21 | 166 | 9.7 | 17.7 | 0.00 | 0.00 | 0.00 | 82 | 1007.9 |
| 20260505082408 | 21 | 169 | 9.7 | 16.1 | 0.00 | 0.00 | 0.00 | 81 | 1007.8 |
| 20260505081416 | 21 | 115 | 12.9 | 16.1 | 0.00 | 0.00 | 0.00 | 81 | 1007.8 |
| 20260505080408 | 21 | 187 | 9.7 | 16.1 | 0.00 | 0.00 | 0.00 | 80 | 1008.0 |
| 20260505075416 | 21 | 91 | 19.3 | 33.8 | 0.00 | 0.00 | 0.00 | 80 | 1008.0 |
| 20260505074408 | 22 | 345 | 9.7 | 14.5 | 0.00 | 0.00 | 0.00 | 79 | 1008.2 |
| 20260505073417 | 22 | 134 | 25.7 | 29.0 | 0.00 | 0.00 | 0.00 | 79 | 1008.2 |
| 20260505072409 | 22 | 185 | 4.8 | 9.7 | 0.00 | 0.00 | 0.00 | 78 | 1008.5 |
| 20260505071416 | 22 | 205 | 12.9 | 17.7 | 0.00 | 0.00 | 0.00 | 78 | 1008.6 |
| 20260505070334 | 22 | 160 | 19.3 | 25.7 | 0.00 | 0.00 | 0.00 | 77 | 1008.9 |
| 20260505065334 | 22 | 121 | 11.3 | 16.1 | 0.00 | 0.00 | 0.00 | 77 | 1009.0 |
| 20260505064334 | 22 | 93 | 12.9 | 17.7 | 0.00 | 0.00 | 0.00 | 76 | 1009.0 |
| 20260505063334 | 22 | 91 | 8.0 | 11.3 | 0.00 | 0.00 | 0.00 | 76 | 1009.1 |
| 20260505062354 | 22 | 93 | 6.4 | 12.9 | 0.00 | 0.00 | 0.00 | 76 | 1009.2 |
| 20260505061312 | 22 | 153 | 8.0 | 9.7 | 0.00 | 0.00 | 0.00 | 75 | 1009.0 |
| 20260505060305 | 22 | 64 | 11.3 | 14.5 | 0.00 | 0.00 | 0.00 | 74 | 1009.0 |
| 20260505055312 | 22 | 250 | 11.3 | 14.5 | 0.00 | 0.00 | 0.00 | 74 | 1009.3 |
| 20260505054325 | 22 | 126 | 11.3 | 16.1 | 0.00 | 0.00 | 0.00 | 73 | 1009.3 |
| 20260505053332 | 22 | 211 | 6.4 | 9.7 | 0.00 | 0.00 | 0.00 | 73 | 1009.3 |
| 20260505052304 | 22 | 92 | 8.0 | 9.7 | 0.00 | 0.00 | 0.00 | 73 | 1009.7 |
| 20260505051312 | 22 | 124 | 12.9 | 16.1 | 0.00 | 0.00 | 0.00 | 72 | 1009.7 |
| 20260505050304 | 22 | 133 | 8.0 | 12.9 | 0.00 | 0.00 | 0.00 | 72 | 1009.4 |
| 20260505041313 | 22 | 144 | 8.0 | 12.9 | 0.00 | 0.00 | 0.00 | 70 | 1009.5 |
| 20260505040324 | 23 | 230 | 8.0 | 11.3 | 0.00 | 0.00 | 0.00 | 70 | 1009.9 |
| 20260505035312 | 23 | 172 | 6.4 | 9.7 | 0.00 | 0.00 | 0.00 | 70 | 1009.6 |
| 20260505034304 | 23 | 132 | 11.3 | 17.7 | 0.00 | 0.00 | 0.00 | 69 | 1009.6 |
| 20260505033312 | 23 | 160 | 9.7 | 12.9 | 0.00 | 0.00 | 0.00 | 69 | 1009.8 |
| 20260505032305 | 23 | 123 | 8.0 | 9.7 | 0.00 | 0.00 | 0.00 | 69 | 1009.9 |
| 20260505031313 | 23 | 100 | 6.4 | 9.7 | 0.00 | 0.00 | 0.00 | 68 | 1009.8 |
| 20260505030305 | 23 | 148 | 4.8 | 9.7 | 0.00 | 0.00 | 0.00 | 68 | 1009.8 |
| 20260505025333 | 23 | 110 | 8.0 | 11.3 | 0.00 | 0.00 | 0.00 | 68 | 1010.0 |
| 20260505024305 | 23 | 113 | 11.3 | 16.1 | 0.00 | 0.00 | 0.00 | 67 | 1009.8 |
| 20260505023313 | 23 | 136 | 8.0 | 11.3 | 0.00 | 0.00 | 0.00 | 67 | 1009.8 |
| 20260505022305 | 23 | 165 | 8.0 | 14.5 | 0.00 | 0.00 | 0.00 | 66 | 1009.9 |
| 20260505021333 | 23 | 138 | 8.0 | 11.3 | 0.00 | 0.00 | 0.00 | 66 | 1009.8 |
| 20260505020304 | 24 | 186 | 11.3 | 14.5 | 0.00 | 0.00 | 0.00 | 65 | 1009.5 |
| 20260505015312 | 24 | 165 | 11.3 | 12.9 | 0.00 | 0.00 | 0.00 | 65 | 1009.7 |
| 20260505014305 | 24 | 200 | 12.9 | 16.1 | 0.00 | 0.00 | 0.00 | 64 | 1009.5 |
| 20260505013312 | 24 | 358 | 9.7 | 12.9 | 0.00 | 0.00 | 0.00 | 63 | 1009.8 |
| 20260505012324 | 24 | 138 | 11.3 | 14.5 | 0.00 | 0.00 | 0.00 | 63 | 1009.7 |
| 20260505011313 | 24 | 174 | 8.0 | 9.7 | 0.00 | 0.00 | 0.00 | 63 | 1009.7 |
| 20260505010325 | 25 | 139 | 12.9 | 16.1 | 0.00 | 0.00 | 0.00 | 62 | 1009.6 |
| 20260505005313 | 25 | 96 | 12.9 | 20.9 | 0.00 | 0.00 | 0.00 | 62 | 1009.6 |
| 20260505004305 | 25 | 88 | 8.0 | 11.3 | 0.00 | 0.00 | 0.00 | 61 | 1009.5 |
| 20260505003313 | 25 | 135 | 8.0 | 9.7 | 0.00 | 0.00 | 0.00 | 61 | 1009.7 |
| 20260505002305 | 25 | 144 | 12.9 | 17.7 | 0.00 | 0.00 | 0.00 | 60 | 1009.8 |
| 20260505001314 | 26 | 113 | 16.1 | 20.9 | 0.00 | 0.00 | 0.00 | 59 | 1009.8 |
| 20260505000305 | 26 | 128 | 11.3 | 16.1 | 0.00 | 0.00 | 0.00 | 58 | 1009.7 |
| 20260504235313 | 26 | 128 | 11.3 | 16.1 | 0.00 | 0.00 | 0.00 | 58 | 1009.8 |
| 20260504234305 | 26 | 176 | 6.4 | 12.9 | 0.00 | 0.00 | 0.00 | 58 | 1009.8 |
| 20260504233313 | 26 | 117 | 12.9 | 16.1 | 0.00 | 0.00 | 0.00 | 57 | 1009.8 |
| 20260504232325 | 26 | 217 | 16.1 | 25.7 | 0.00 | 0.00 | 0.00 | 57 | 1009.9 |
| 20260504231313 | 26 | 190 | 11.3 | 14.5 | 0.00 | 0.00 | 0.00 | 56 | 1010.1 |
| 20260504230305 | 27 | 158 | 6.4 | 12.9 | 0.00 | 0.00 | 0.00 | 55 | 1010.2 |
| 20260504225313 | 27 | 162 | 16.1 | 24.1 | 0.00 | 0.00 | 0.00 | 54 | 1010.6 |
| 20260504224305 | 27 | 179 | 22.5 | 32.2 | 0.00 | 0.00 | 0.00 | 54 | 1010.3 |
| 20260504223333 | 27 | 151 | 24.1 | 35.4 | 0.00 | 0.00 | 0.00 | 54 | 1010.3 |
| 20260504222305 | 27 | 176 | 17.7 | 33.8 | 0.00 | 0.00 | 0.00 | 53 | 1010.1 |
| 20260504221313 | 27 | 159 | 16.1 | 27.4 | 0.00 | 0.00 | 0.00 | 53 | 1010.2 |
| 20260504220305 | 27 | 193 | 9.7 | 12.9 | 0.00 | 0.00 | 0.00 | 54 | 1010.6 |
| 20260504215314 | 27 | 138 | 12.9 | 32.2 | 0.00 | 0.00 | 0.00 | 53 | 1010.7 |
| 20260504214305 | 27 | 160 | 14.5 | 17.7 | 0.00 | 0.00 | 0.00 | 54 | 1010.9 |
| 20260504213313 | 27 | 145 | 11.3 | 22.5 | 0.00 | 0.00 | 0.00 | 53 | 1011.0 |
| 20260504212305 | 27 | 310 | 17.7 | 22.5 | 0.00 | 0.00 | 0.00 | 53 | 1011.1 |
| 20260504211333 | 27 | 186 | 19.3 | 24.1 | 0.00 | 0.00 | 0.00 | 52 | 1011.5 |
| 20260504210305 | 27 | 122 | 6.4 | 9.7 | 0.00 | 0.00 | 0.00 | 52 | 1011.5 |
| 20260504205314 | 27 | 208 | 11.3 | 12.9 | 0.00 | 0.00 | 0.00 | 51 | 1011.7 |
| 20260504204305 | 27 | 116 | 12.9 | 17.7 | 0.00 | 0.00 | 0.00 | 51 | 1011.7 |
| 20260504203313 | 27 | 167 | 29.0 | 41.8 | 0.00 | 0.00 | 0.00 | 50 | 1012.0 |
| 20260504202305 | 27 | 236 | 11.3 | 16.1 | 0.00 | 0.00 | 0.00 | 50 | 1012.2 |
| 20260504201313 | 27 | 150 | 14.5 | 25.7 | 0.00 | 0.00 | 0.00 | 49 | 1012.5 |
| 20260504200305 | 27 | 89 | 19.3 | 27.4 | 0.00 | 0.00 | 0.00 | 50 | 1012.7 |